Satellite: RS-30
Catalog number: 32953
Epoch time:      11293.79056131
Element set:     186
Inclination:      082.4981 deg
RA of node:       084.6274 deg
Eccentricity:    0.0019593
Arg of perigee:   111.8585 deg
Mean anomaly:     248.4582 deg
Mean motion:   12.43016025 rev/day
Decay rate:        1.0e-07 rev/day^2
Epoch rev:           15469
Checksum:              301

Satellite: TACSAT-3
Catalog number: 35001
Epoch time:      11292.95472701
Element set:    0731
Inclination:      040.4515 deg
RA of node:       132.5781 deg
Eccentricity:    0.0015119
Arg of perigee:   052.7420 deg
Mean anomaly:     307.4777 deg
Mean motion:   15.55089473 rev/day
Decay rate:     5.6865e-04 rev/day^2
Epoch rev:           13646
Checksum:              296

Satellite: PHARMSAT
Catalog number: 35002
Epoch time:      11293.56808109
Element set:     679
Inclination:      040.4680 deg
RA of node:       127.7195 deg
Eccentricity:    0.0018374
Arg of perigee:   069.0059 deg
Mean anomaly:     291.2752 deg
Mean motion:   15.53402527 rev/day
Decay rate:     4.2960e-04 rev/day^2
Epoch rev:           13657
Checksum:              303

Satellite: HAWKSAT1
Catalog number: 35003
Epoch time:      11278.76493853
Element set:    0821
Inclination:      040.4370 deg
RA of node:       161.0594 deg
Eccentricity:    0.0006849
Arg of perigee:   275.9761 deg
Mean anomaly:     084.3784 deg
Mean motion:   16.29831142 rev/day
Decay rate:   5.638703e-02 rev/day^2
Epoch rev:           13489
Checksum:              328

Satellite: CP6
Catalog number: 35004
Epoch time:      11247.64656856
Element set:     784
Inclination:      040.4403 deg
RA of node:       342.9642 deg
Eccentricity:    0.0002956
Arg of perigee:   038.0069 deg
Mean anomaly:     322.2231 deg
Mean motion:   16.41039951 rev/day
Decay rate:  1.6152067e-01 rev/day^2
Epoch rev:           13013
Checksum:              285

Satellite: METEOR-M
Catalog number: 35865
Epoch time:      11293.76389016
Element set:     829
Inclination:      098.6913 deg
RA of node:       347.1674 deg
Eccentricity:    0.0003259
Arg of perigee:   037.5508 deg
Mean anomaly:     322.5903 deg
Mean motion:   14.21842586 rev/day
Decay rate:        1.0e-07 rev/day^2
Epoch rev:           10843
Checksum:              310

Satellite: RS-38
Catalog number: 35869
Epoch time:      11293.74822055
Element set:     809
Inclination:      098.6888 deg
RA of node:       347.1793 deg
Eccentricity:    0.0005272
Arg of perigee:   035.3593 deg
Mean anomaly:     324.7938 deg
Mean motion:   14.22026513 rev/day
Decay rate:        7.9e-07 rev/day^2
Epoch rev:           10844
Checksum:              339

Satellite: ARISSAT1
Catalog number: 37772
Epoch time:      11293.77958782
Element set:     237
Inclination:      051.6376 deg
RA of node:       246.8092 deg
Eccentricity:    0.0007741
Arg of perigee:   008.0200 deg
Mean anomaly:     066.5222 deg
Mean motion:   15.69099575 rev/day
Decay rate:    1.17600e-03 rev/day^2
Epoch rev:            1212
Checksum:              302

Satellite: SRMSAT
Catalog number: 37839
Epoch time:      11292.62968901
Element set:      10
Inclination:      019.9628 deg
RA of node:       021.5381 deg
Eccentricity:    0.0019280
Arg of perigee:   083.5148 deg
Mean anomaly:     276.7407 deg
Mean motion:   14.11974518 rev/day
Decay rate:       6.19e-06 rev/day^2
Epoch rev:             105
Checksum:              296

Satellite: JUGNU
Catalog number: 37841
Epoch time:      11293.55958539
Element set:       9
Inclination:      019.9730 deg
RA of node:       016.0842 deg
Eccentricity:    0.0011653
Arg of perigee:   070.6290 deg
Mean anomaly:     289.5438 deg
Mean motion:   14.10074334 rev/day
Decay rate:       2.64e-06 rev/day^2
Epoch rev:             118
Checksum:              284

/EX


_______________________________________________
Via the Keps mailing list courtesy of AMSAT-NA
http://amsat.org/mailman/listinfo/keps

--- ViaMAIL!/WC v1.60d
 * Origin: Chowdanet (401-724-4410) telnet://chowdanet.com  (1:323/120)